Location: Moy Burn
(57.3833°N, 4.0667°W)
Time: 09:37:15
(UTC+00:00)

Cosmos 1933 Rocket - Pass Details

Date: 08 August 2020
Orbit: 606 x 630 km, 82.5° (Epoch: 18 September)

Event Time Altitude Azimuth Distance (km) Brightness Sun altitude
Exits shadow 22:01:24 11° 181° (S) 1,956 5.6 -11.2°
Maximum altitude 22:05:42 68° 99° (E) 676 3.6 -11.6°
Drops below altitude 10° 22:10:09 10° 16° (NNE) 2,017 6.8 -11.9°
Sets 22:12:24 0° 15° (NNE) 2,932 7.7 -12.1°
